Weather History for Bartlesville, OK

Change the Weather History Date:

Thursday, September 26, 2013

  Actual Average Record
Temperature  
Mean Temperature 72 °F -  
Max Temperature 89 °F 81 °F 93 °F (1953)
Min Temperature 57 °F 54 °F 30 °F (2000)
Cooling Degree Days 8    
Growing Degree Days 22 (Base 50)    
Moisture  
Dew Point 60 °F    
Average Humidity 68    
Maximum Humidity 100    
Minimum Humidity 42    
Precipitation  
Precipitation 0.01 in - - ()
Sea Level Pressure  
Sea Level Pressure 29.83 in    
Wind  
Wind Speed 5 mph (SSE)    
Max Wind Speed 14 mph    
Max Gust Speed 22 mph    
Visibility 10 miles    
Events      
Averages and records for this station are not official NWS values.
T = Trace of Precipitation, MM = Missing Value Source: NWS Daily Summary

Daily Weather History Graph

Daily Weather History Graph

Search for Another Location

Airport:

Trip Planner

Search our weather history database for the weather conditions in past years. The results will help you decide how hot, cold, wet, or windy it might be!

Date:

Astronomy

Sep. 26, 2013 Rise Set
Actual Time 7:15 AM CDT 7:14 PM CDT
Civil Twilight 6:49 AM CDT 7:40 PM CDT
Nautical Twilight 6:19 AM CDT 8:10 PM CDT
Astronomical Twilight 5:49 AM CDT 8:40 PM CDT
Moon No Moon Rise 2:00 PM CDT (9/26)
Length of Visible Light 12h 50m
Length of Day
11h 59m
Waning Gibbous, 54% of the Moon is Illuminated
Sep 26
Waning Gibbous
Sep 26
Last Quarter
Oct 4
New
Oct 11
First Quarter
Oct 18
Full

Hourly Weather History & Observations

Time (CDT) Temp. Heat Index Dew Point Humidity Pressure Visibility Wind Dir Wind Speed Gust Speed Precip Events Conditions
12:53 AM 60.1 °F - 59.0 °F 96% 29.80 in 10.0 mi Calm Calm - N/A   Clear
1:53 AM 62.1 °F - 60.1 °F 93% 29.78 in 10.0 mi South 4.6 mph - N/A   Clear
2:53 AM 57.9 °F - 57.9 °F 100% 29.79 in 8.0 mi Calm Calm - N/A   Clear
3:53 AM 61.0 °F - 57.9 °F 90% 29.79 in 10.0 mi SSE 3.5 mph - N/A   Clear
4:53 AM 61.0 °F - 57.9 °F 90% 29.81 in 10.0 mi Calm Calm - 0.01 in   Clear
5:53 AM 57.9 °F - 57.0 °F 97% 29.83 in 10.0 mi Calm Calm - N/A   Clear
6:53 AM 59.0 °F - 57.0 °F 93% 29.83 in 10.0 mi South 3.5 mph - N/A   Clear
7:53 AM 62.1 °F - 59.0 °F 90% 29.86 in 10.0 mi SSE 5.8 mph - N/A   Clear
8:53 AM 64.9 °F - 61.0 °F 87% 29.87 in 10.0 mi SSE 6.9 mph - N/A   Clear
9:53 AM 71.1 °F - 61.0 °F 70% 29.88 in 10.0 mi SSE 11.5 mph 17.3 mph N/A   Clear
10:53 AM 77.0 °F - 62.1 °F 60% 29.88 in 10.0 mi SSE 10.4 mph 19.6 mph N/A   Clear
11:53 AM 81.0 °F 81.3 °F 59.0 °F 47% 29.86 in 10.0 mi South 12.7 mph 21.9 mph N/A   Clear
12:53 PM 84.9 °F 85.0 °F 61.0 °F 44% 29.85 in 10.0 mi SSE 12.7 mph 19.6 mph N/A   Clear
1:53 PM 87.1 °F 87.5 °F 62.1 °F 43% 29.83 in 10.0 mi South 13.8 mph 18.4 mph N/A   Clear
2:53 PM 88.0 °F 88.4 °F 62.1 °F 42% 29.82 in 10.0 mi South 11.5 mph 18.4 mph N/A   Clear
3:53 PM 88.0 °F 88.4 °F 62.1 °F 42% 29.81 in 10.0 mi SSE 13.8 mph 19.6 mph N/A   Clear
4:53 PM 88.0 °F 88.7 °F 63.0 °F 43% 29.80 in 10.0 mi SE 11.5 mph 16.1 mph N/A   Clear
5:53 PM 86.0 °F 86.3 °F 62.1 °F 44% 29.80 in 10.0 mi SE 10.4 mph - N/A   Clear
6:53 PM 82.0 °F 83.0 °F 62.1 °F 51% 29.80 in 10.0 mi SE 8.1 mph - N/A   Clear
7:53 PM 79.0 °F - 61.0 °F 54% 29.81 in 10.0 mi SE 8.1 mph - N/A   Clear
8:53 PM 75.0 °F - 61.0 °F 62% 29.83 in 10.0 mi SSE 5.8 mph - N/A   Clear
9:53 PM 73.0 °F - 61.0 °F 66% 29.84 in 10.0 mi SSE 5.8 mph - N/A   Clear
10:53 PM 71.1 °F - 61.0 °F 70% 29.85 in 10.0 mi Calm Calm - N/A   Clear
11:53 PM 72.0 °F - 61.0 °F 68% 29.85 in 10.0 mi SSE 6.9 mph - N/A   Clear